Location: Baix
(44.7118°N, 4.7648°E)
Time: 00:50:24
(UTC+00:00)

Cosmos 2082 - Pass Details

Date: 07 August 2020
Orbit: 834 x 855 km, 71.0° (Epoch: 19 September)

Event Time Altitude Azimuth Distance (km) Brightness Sun altitude
Exits shadow 01:53:03 45° 177° (S) 1,132 4.0 -22.5°
Maximum altitude 01:54:43 68° 112° (ESE) 898 3.8 -22.4°
Drops below altitude 10° 02:00:18 10° 30° (NNE) 2,452 7.3 -21.8°
Sets 02:02:45 0° 28° (NNE) 3,391 8.3 -21.6°
